Orbital Elements at Epoch 2459200.5 (2020-Dec-17.0) TDB
Reference: JPL 35 (heliocentric ecliptic J2000)
Element | Value | Uncertainty (1-sigma) | Units |
e | .1225093846085725 | 2.7412e-08 | |
a | 2.291773778617953 | 7.2633e-09 | au |
q | 2.011009983337405 | 6.2293e-08 | au |
i | 3.637788797345839 | 3.4077e-06 | deg |
node | 143.412306807961 | 5.1761e-05 | deg |
peri | 286.6775664448984 | 5.4054e-05 | deg |
M | 131.7623053396808 | 1.4946e-05 | deg |
tp | 2458736.685063859238 (2019-Sep-10.18506386) | 5.2519e-05 | TDB |
period | 1267.231751753432 3.47 | 6.0244e-06 1.649e-08 | d yr |
n | .2840837909102881 | 1.3505e-09 | deg/d |
Q | 2.572537573898502 | 8.1532e-09 | au |
|
| | Orbit Determination Parameters
Additional Information
|